{"data":{"norad_id":67003,"intl_designator":"2025-293A","name":"STARLINK-35660","alt_names":[],"object_type":"PAYLOAD","status":"ACTIVE","operator":null,"country":"US","launch_date":"2025-12-10","launch_site_code":"AFWTR","launch_vehicle":null,"mission":null,"orbit_class":"UNKNOWN","rcs_meters":null,"size_class":null,"mass_kg":null,"dimensions":null,"purposes":["comms"],"wikipedia_slug":null,"has_3d_model":false,"image_url":null,"decayed_at":null,"tle_current":{"epoch":"2026-05-24T17:37:46.803936Z","epoch_age_seconds":98064,"freshness":"FRESH","line1":"1 67003U 25293A   26144.73456949  .00002283  00000+0  19903-3 0  9990","line2":"2 67003  70.0007 262.9186 0003396 268.8681  91.2089 14.98334471 26276","mean_motion":14.98334471,"eccentricity":0.0003396,"inclination_deg":70.0007,"raan_deg":262.9186,"arg_perigee_deg":268.8681,"mean_anomaly_deg":91.2089,"bstar":0.00019903,"rev_number":2627,"period_min":96.106712344336,"perigee_km":569.68178396971,"apogee_km":574.40234559051,"semimajor_km":6950.1790647801,"source":"CELESTRAK","updated_at":"2026-05-25T13:38:21.429135Z"}}}